EW4071 Weather Reports


time (UTC)temp
C
wind
direction
speed
KPH
gust
KPH
rain 1hr
cm
rain 24hr
cm
rain mn
cm
humidity
%
barometer
mb
20260510083033 17 130 0.0 0.0 0.00 0.15 0.00 65 1010.5
20260510081529 17 130 0.0 0.0 0.00 0.15 0.00 61 1009.9
20260510080029 17 130 0.0 0.0 0.00 0.15 0.00 60 1009.5
20260510074531 18 131 0.0 0.0 0.00 0.15 0.00 58 1009.5
20260510073021 19 130 0.0 0.0 0.00 0.15 0.00 54 1009.7
20260510071517 20 130 0.0 0.0 0.00 0.15 0.00 52 1009.5
20260510070016 20 130 0.0 0.0 0.00 0.15 0.00 51 1009.3
20260510064513 20 130 0.0 0.0 0.00 0.15 0.00 48 1008.8
20260510063008 20 130 0.0 0.0 0.00 0.15 0.00 49 1008.3
20260510061507 21 130 0.0 9.7 0.00 0.15 0.00 46 1007.9
20260510060006 21 43 0.0 29.0 0.00 0.15 0.00 48 1007.8
20260510054503 21 149 22.5 40.2 0.00 0.15 0.00 48 1006.4
20260510053113 21 176 22.5 43.5 0.05 0.15 0.00 51 1005.0
20260510051645 20 154 41.8 62.8 0.10 0.15 0.00 55 1004.1
20260510050056 20 219 24.1 40.2 0.10 0.15 0.00 59 1007.6
20260510044553 19 148 30.6 40.2 0.13 0.15 0.15 68 1007.3
20260510043130 19 223 20.9 37.0 0.10 0.10 0.10 70 1010.2
20260510041553 16 220 19.3 27.4 0.05 0.05 0.05 91 1011.2
20260510040049 19 159 14.5 22.5 0.05 0.05 0.05 68 1010.0
20260510034553 20 336 0.0 0.0 0.03 0.03 0.03 58 1011.8
20260510033050 21 333 0.0 6.4 0.00 0.00 0.00 55 1012.3
20260510031610 22 313 6.4 20.9 0.00 0.00 0.00 51 1011.7
20260510030039 22 353 1.6 11.3 0.00 0.00 0.00 53 1010.4
20260510024537 22 348 0.0 8.0 0.00 0.00 0.00 49 1009.4
20260510023042 23 109 0.0 11.3 0.00 0.00 0.00 45 1008.1
20260510021530 22 123 1.6 12.9 0.00 0.00 0.00 45 1007.5
20260510020028 22 133 0.0 4.8 0.00 0.00 0.00 48 1007.2
20260510014527 22 53 0.0 0.0 0.00 0.00 0.00 47 1006.9
20260510013026 23 148 0.0 0.0 0.00 0.00 0.00 46 1006.7
20260510011526 23 117 0.0 0.0 0.00 0.00 0.00 43 1006.1
20260510010029 25 142 0.0 11.3 0.00 0.00 0.00 41 1006.0
20260510004524 25 116 0.0 12.9 0.00 0.00 0.00 40 1005.6
20260510003024 26 142 8.0 16.1 0.00 0.00 0.00 38 1005.6
20260510001523 26 141 8.0 17.7 0.00 0.00 0.00 37 1005.5
20260510000023 26 126 6.4 19.3 0.00 0.00 0.00 36 1005.5
20260509234524 27 148 8.0 19.3 0.00 0.00 0.00 36 1005.6
20260509233020 27 123 9.7 19.3 0.00 0.00 0.00 35 1005.6
20260509231520 27 126 9.7 19.3 0.00 0.00 0.00 34 1005.6
20260509230020 27 134 11.3 19.3 0.00 0.00 0.00 32 1005.5
20260509224520 28 142 9.7 22.5 0.00 0.00 0.00 33 1005.5
20260509223017 28 114 4.8 24.1 0.00 0.00 0.00 31 1005.5
20260509221517 28 110 6.4 25.7 0.00 0.00 0.00 30 1005.6
20260509220015 28 130 9.7 20.9 0.00 0.00 0.00 30 1005.6
20260509214514 28 138 4.8 17.7 0.00 0.00 0.00 29 1005.6
20260509213013 28 133 9.7 22.5 0.00 0.00 0.00 29 1005.8
20260509211517 28 102 1.6 19.3 0.00 0.00 0.00 29 1005.9
20260509210009 28 170 6.4 17.7 0.00 0.00 0.00 27 1006.2
20260509204507 28 136 0.0 12.9 0.00 0.00 0.00 30 1006.4
20260509203008 28 128 4.8 17.7 0.00 0.00 0.00 29 1006.6
20260509201504 28 92 4.8 19.3 0.00 0.00 0.00 28 1006.8
20260509200001 28 126 0.0 11.3 0.00 0.00 0.00 28 1007.1
20260509194600 28 330 0.0 12.9 0.00 0.33 0.00 25 1007.2
20260509193057 28 130 1.6 16.1 0.00 0.33 0.00 27 1007.3
20260509191555 28 138 9.7 16.1 0.00 0.33 0.00 28 1007.5
20260509190054 28 153 4.8 12.9 0.00 0.33 0.00 34 1007.7
20260509184550 27 152 4.8 17.7 0.00 0.36 0.00 30 1007.8
20260509183049 27 169 0.0 9.7 0.00 0.36 0.00 34 1008.0
20260509181604 27 111 3.2 11.3 0.00 0.36 0.00 36 1008.1
20260509180045 27 209 0.0 12.9 0.00 0.36 0.00 33 1008.3
20260509174544 27 143 0.0 8.0 0.00 0.36 0.00 35 1008.4
20260509173041 26 175 0.0 0.0 0.00 0.36 0.00 37 1008.6
20260509171539 26 237 0.0 0.0 0.00 0.36 0.00 36 1008.8
20260509170036 26 227 3.2 8.0 0.00 0.36 0.00 34 1009.0
20260509164534 26 146 0.0 9.7 0.00 0.36 0.00 38 1009.1
20260509163047 26 236 0.0 0.0 0.00 0.36 0.00 39 1009.1
20260509161528 25 258 0.0 0.0 0.00 0.36 0.00 41 1009.0
20260509160026 24 256 0.0 0.0 0.00 0.36 0.00 51 1009.1
20260509154522 24 258 0.0 0.0 0.00 0.36 0.00 55 1008.9
20260509153021 23 260 0.0 0.0 0.00 0.36 0.00 62 1008.8
20260509151516 22 259 0.0 0.0 0.00 0.36 0.00 67 1009.0
20260509150011 21 255 0.0 0.0 0.00 0.36 0.00 71 1008.9
20260509144508 21 294 0.0 0.0 0.00 0.36 0.00 75 1008.7
20260509143003 19 291 0.0 0.0 0.00 0.36 0.00 82 1008.7
20260509141559 18 273 0.0 0.0 0.00 0.36 0.00 84 1008.9
20260509140109 17 303 0.0 0.0 0.00 0.36 0.00 85 1008.9
20260509134554 16 304 0.0 0.0 0.00 0.36 0.00 88 1008.9
20260509133101 15 303 0.0 6.4 0.00 0.36 0.00 88 1008.9
20260509131551 15 290 0.0 0.0 0.00 0.36 0.00 88 1008.7
20260509130049 14 142 0.0 0.0 0.00 0.36 0.00 91 1008.7
20260509124553 13 142 0.0 0.0 0.00 0.36 0.00 94 1008.6
20260509123048 12 142 0.0 0.0 0.00 0.36 0.00 97 1008.5
20260509121546 11 142 0.0 0.0 0.00 0.36 0.00 97 1008.3
20260509120046 11 142 0.0 0.0 0.00 0.36 0.00 97 1008.1
20260509114554 11 142 0.0 0.0 0.00 0.36 0.00 97 1008.1
20260509113046 11 142 0.0 0.0 0.00 0.36 0.00 97 1007.8
20260509111545 11 142 0.0 0.0 0.00 0.36 0.00 96 1007.8
20260509110048 11 141 0.0 0.0 0.00 0.36 0.00 96 1007.8
20260509104543 11 142 0.0 0.0 0.00 0.36 0.00 96 1007.8
20260509103041 11 142 0.0 0.0 0.00 0.36 0.00 96 1007.8
20260509101540 12 142 0.0 0.0 0.00 0.36 0.00 96 1007.9
20260509100040 12 142 0.0 0.0 0.00 0.36 0.00 96 1008.0
20260509094539 12 142 0.0 0.0 0.00 0.36 0.00 97 1008.0
20260509093037 12 142 0.0 0.0 0.00 0.36 0.00 96 1008.0
20260509091537 11 142 0.0 0.0 0.00 0.36 0.00 95 1008.1
20260509090035 12 142 0.0 0.0 0.00 0.36 0.00 95 1008.2
20260509084537 12 142 0.0 0.0 0.00 0.36 0.00 95 1008.1